Weather in Mari-Bilyamor

Russia / Mari El Republic     56°50′28″N   49°54′05″E
В апреле 2022 года жителям России запретили посещать сайт meteo.paraplan.net по решению Генеральной прокуратуры. Аудитория сайта уменьшилась в 10 раз. Владельцы сайта не видят смысла в поддержке погодного сервера в таких условиях. Сайт будет закрыт в октябре.
temp.,
°C
wind,
m/s
gust,
m/s
humid.,
%
clouds,
%
prec.,
mm/h
press.,
hPa
HPBL,
m
3 october, mon
mon300:00+14s61393100 0.0 1012458
03:00+13s61390100 0.1 1012444
06:00+13s61393100 1.1 1013476
09:00+14s6157697 1.6 1014549
12:00+16s7155780 0.0 1016712
15:00+17s7155265 0.0 1016897
18:00+14sse7165293 0.0 1018623
21:00+13s7165014 0.0 1019624
4 october, tue
tue400:00+11s61550100 0.0 1021516
03:00+10sse51352100 0.0 1021400
06:00+10sse51350100 0.0 1022417
09:00+12s51248100 0.0 1024638
12:00+9s61565100 0.4 1025674
15:00+10sse51256100 0.6 1025539
18:00+10sse51350100 0.0 1025418
21:00+10s61644100 0.0 1025614
5 october, wed
wed500:00+9sse3971100 0.2 1025368
03:00+9s71268100 0.3 1025492
06:00+9sse71362100 0.3 1024527
09:00+8sse61273100 0.3 1023613
12:00+13s695833 0.0 1022937
15:00+14sse6105269 0.0 1020994
18:00+10sse61455100 0.0 1020580
21:00+10s61367100 0.4 1019734
6 october, thu
thu600:00+9s61275100 0.1 1017608
03:00+9s51090100 1.4 1016568
06:00+9s4986100 0.1 1015444
09:00+9sw488484 0.4 1015755
12:00+11sw565676 0.1 10141588
15:00+9wsw4772100 0.4 1014891
18:00+5wsw378517 0.1 1015232
21:00+6wsw3687100 0.1 1015364
7 october, fri
fri700:00+6sw3789100 0.0 1014382
03:00+5sw3890100 0.0 1013247
06:00+3ssw4988100 0.0 1012216
09:00+6sw5881100 0.4 1011622
12:00+6sw51092100 1.3 1010601
15:00+9w598776 1.3 1009647
18:00+8wsw51388100 0.3 1010606
21:00+8w7128780 1.2 1010875